Temperature
14 11 10 11 12 13 14 13 12 10 8 6 5 4 3 3 3 3 3 3 3 3 3 3 3 3 3 3 3 2 2 2 2 2 2 2 2 2 2 2 2 3 3 4
11 11 11 12 11 12 13 12 11 9 8 6 4 3 3 3 3 2 2 2 2 2 2 2 2 2 1 1 1 1 0 -1 -1 -1 -1 -1 -0 0 1 1 2 2 2 3
11 12 12 12 10 11 12 12 12 10 6 5 4 3 3 3 3 2 2 2 2 1 1 1 1 0 0 0 -0 -1 -1 -2 -2 -2 -2 -2 -1 -1 0 1 1 1 1 2
11 12 11 11 10 10 11 12 11 10 7 5 5 3 2 3 2 2 2 2 2 1 0 -0 -1 -1 -2 -2 -2 -2 -2 -3 -3 -3 -3 -3 -3 -4 -3 -3 -1 -0 0 0
12 11 11 11 11 10 10 9 9 9 7 6 6 4 2 2 2 1 2 2 1 0 -0 -1 -2 -3 -3 -3 -4 -4 -4 -3 -4 -3 -4 -4 -4 -5 -5 -5 -4 -4 -3 -2
11 12 10 10 10 10 9 9 9 7 7 8 6 5 2 1 2 1 1 2 1 -0 -1 -2 -3 -4 -4 -5 -5 -5 -5 -5 -5 -5 -5 -5 -6 -6 -6 -6 -6 -5 -5 -4
10 11 10 10 10 9 7 8 9 9 9 8 4 2 1 2 2 2 1 1 0 -1 -2 -3 -4 -5 -5 -6 -6 -6 -6 -6 -6 -6 -6 -7 -7 -7 -7 -7 -6 -6 -6 -5
10 10 9 9 10 10 8 8 8 9 8 6 4 2 1 2 2 2 2 1 -0 -2 -3 -4 -4 -5 -6 -6 -6 -6 -7 -7 -7 -7 -7 -8 -8 -8 -8 -7 -7 -7 -6 -6
8 9 9 9 9 10 10 7 8 6 5 5 4 1 2 2 1 2 1 0 -1 -2 -4 -4 -5 -6 -6 -7 -7 -7 -7 -8 -8 -8 -8 -8 -8 -8 -8 -8 -7 -7 -7 -6
8 8 8 7 9 8 8 6 5 6 6 6 5 2 1 1 -0 -1 0 -0 -1 -3 -4 -5 -6 -6 -7 -8 -8 -8 -8 -9 -9 -9 -9 -9 -9 -8 -8 -8 -8 -7 -7 -7
7 7 7 7 7 7 8 6 4 3 4 4 3 3 1 1 0 -1 -0 -1 -2 -3 -5 -6 -6 -7 -7 -8 -8 -9 -9 -9 -9 -9 -10 -9 -9 -9 -9 -8 -8 -8 -8 -7
5 5 6 7 7 6 6 6 5 5 4 2 1 2 2 1 1 0 -0 -1 -3 -4 -5 -6 -7 -7 -8 -8 -9 -9 -10 -10 -10 -10 -10 -10 -10 -10 -9 -9 -9 -8 -8 -8
6 5 8 9 7 5 5 5 5 3 2 1 1 2 1 0 1 1 -0 -2 -4 -5 -6 -7 -8 -8 -9 -9 -10 -10 -10 -11 -10 -10 -10 -10 -10 -10 -10 -10 -9 -9 -9 -8
5 4 7 9 7 4 4 4 4 2 1 1 0 1 1 -1 -1 0 -1 -3 -5 -6 -7 -8 -9 -9 -9 -10 -10 -11 -11 -11 -11 -11 -11 -11 -11 -11 -11 -11 -10 -10 -9 -9
4 4 5 4 3 3 4 3 3 2 1 1 1 0 -0 -1 -1 -1 -2 -4 -5 -7 -8 -9 -10 -10 -10 -10 -11 -11 -11 -12 -12 -12 -12 -12 -12 -12 -12 -12 -11 -11 -10 -10
3 4 4 3 2 2 2 2 2 2 2 1 0 -0 0 1 -0 -1 -3 -5 -6 -8 -9 -9 -10 -10 -10 -11 -11 -12 -12 -12 -13 -13 -13 -13 -13 -13 -13 -13 -12 -12 -11 -10
2 3 4 3 1 2 2 2 2 2 2 1 -0 -0 0 -1 -1 -3 -5 -6 -8 -8 -9 -10 -10 -10 -11 -12 -12 -13 -13 -13 -13 -13 -13 -14 -14 -14 -14 -14 -13 -13 -12 -11
1 2 1 1 2 4 3 2 2 2 1 0 0 -0 -0 -1 -2 -3 -6 -7 -7 -8 -9 -10 -10 -11 -11 -12 -12 -13 -13 -13 -13 -13 -14 -14 -14 -14 -14 -14 -14 -13 -13 -12
1 1 -0 -1 2 2 2 2 2 2 1 1 0 0 -1 -2 -3 -4 -6 -7 -8 -9 -10 -10 -10 -11 -12 -12 -13 -13 -13 -13 -13 -14 -14 -14 -15 -14 -15 -14 -14 -14 -13 -13
-0 -1 -1 -1 3 3 3 2 2 1 -0 1 1 -1 -2 -3 -5 -5 -6 -7 -8 -9 -9 -10 -10 -11 -12 -12 -13 -13 -14 -14 -14 -14 -14 -14 -15 -15 -15 -15 -14 -14 -14 -13
1 -1 -1 -1 -0 0 1 2 2 0 0 1 0 -1 -2 -4 -5 -6 -7 -8 -8 -9 -9 -10 -10 -11 -12 -12 -13 -13 -14 -14 -14 -14 -14 -14 -14 -15 -15 -15 -14 -14 -14 -14
0 -1 -1 -2 -2 0 1 1 -0 1 1 1 -1 -2 -3 -4 -6 -7 -8 -8 -8 -9 -9 -10 -10 -10 -11 -12 -13 -13 -13 -14 -14 -14 -14 -14 -14 -15 -15 -15 -15 -14 -14 -14
-0 -0 -1 -1 1 1 2 2 2 2 1 -0 -1 -3 -4 -5 -7 -8 -8 -8 -8 -9 -9 -10 -10 -10 -11 -11 -12 -13 -13 -14 -14 -14 -14 -14 -14 -14 -14 -15 -15 -15 -15 -15
-1 -1 -2 -2 -1 1 2 2 2 1 0 -1 -2 -3 -5 -6 -7 -7 -7 -8 -8 -9 -9 -10 -10 -10 -10 -11 -12 -13 -13 -14 -14 -13 -13 -13 -14 -14 -14 -15 -15 -15 -15 -15
-0 -3 -2 -1 -0 1 1 2 1 0 -0 -1 -3 -4 -5 -6 -7 -7 -8 -8 -8 -9 -9 -9 -10 -10 -10 -11 -11 -12 -13 -13 -13 -13 -13 -13 -14 -14 -15 -15 -15 -15 -15 -15
-1 -2 -1 -0 1 1 1 1 1 0 -1 -2 -4 -5 -6 -6 -7 -7 -8 -8 -8 -9 -9 -9 -10 -10 -10 -11 -11 -12 -12 -13 -13 -13 -13 -14 -15 -15 -15 -15 -15 -15 -15 -15
Wind_Speed
8 9 6 6 4 2 2 3 4 6 6 9 15 14 9 7 9 11 12 13 14 13 11 11 13 15 16 18 19 18 19 18 15 14 14 14 14 12 10 13 19 21 21 21
8 7 6 4 5 6 5 6 5 6 7 8 13 11 7 7 7 7 8 10 12 13 15 14 15 16 17 17 17 17 17 16 15 15 13 13 13 12 11 14 18 20 22 21
8 3 6 5 9 8 5 4 3 5 6 7 9 6 4 3 4 6 7 7 10 13 13 12 14 15 16 17 19 19 18 17 16 16 13 15 13 13 13 15 14 18 23 22
6 5 6 8 7 6 2 2 1 5 7 6 7 5 5 2 5 7 9 9 11 12 11 11 13 16 18 17 17 18 18 18 17 17 17 18 15 15 16 14 14 18 21 21
4 5 7 7 5 4 5 3 2 3 6 5 3 4 3 0 5 7 8 9 10 10 11 10 12 14 16 17 16 16 18 18 18 17 17 17 16 15 15 15 16 16 14 16
4 3 3 2 3 3 4 3 3 5 4 2 0 5 2 1 2 5 7 10 11 10 10 9 10 11 12 13 15 17 18 17 18 18 17 18 19 19 20 19 18 17 15 13
7 4 7 5 7 9 10 7 7 7 4 1 3 4 3 4 2 2 7 11 11 10 9 10 12 12 14 15 16 17 18 18 19 19 19 19 19 19 19 19 18 18 16 17
5 4 7 7 3 3 5 5 4 3 5 5 3 3 5 4 2 3 6 9 10 9 8 9 10 11 12 15 16 18 19 19 19 18 18 17 18 15 15 18 17 17 16 17
4 4 5 4 4 3 4 4 2 4 3 5 2 2 4 1 5 7 9 9 9 8 8 9 10 11 12 13 16 18 19 19 19 18 18 16 17 17 18 19 17 15 17 18
2 4 5 6 4 7 6 6 4 3 4 7 5 4 3 3 8 9 10 11 10 8 8 9 9 12 12 13 15 15 17 17 17 17 16 16 16 17 17 17 18 19 20 20
2 1 7 5 5 5 4 5 5 4 3 3 6 4 6 3 6 9 10 10 9 9 10 9 9 11 12 12 13 15 16 18 18 17 16 16 16 16 17 16 18 18 19 20
2 3 3 3 2 3 5 4 4 1 3 3 3 5 4 4 5 7 10 9 7 8 8 8 9 11 12 13 14 15 16 17 17 17 17 16 16 17 17 17 18 18 19 19
2 3 4 4 2 6 6 2 2 4 3 4 4 6 4 4 7 7 8 7 7 8 8 7 8 10 12 13 13 14 15 16 17 17 17 17 17 17 17 18 18 18 18 19
4 2 3 4 3 1 3 2 1 5 4 4 6 7 7 9 10 12 10 6 7 9 9 9 10 10 11 12 13 13 13 15 16 17 16 16 17 17 17 17 17 18 18 18
4 1 1 1 3 2 3 3 3 5 6 6 6 6 9 9 9 11 9 7 11 12 12 13 12 11 11 12 12 13 14 14 16 16 17 17 16 16 16 16 17 17 18 18
3 2 1 1 3 3 3 3 2 3 3 4 6 7 5 8 8 10 9 9 11 12 13 14 14 13 12 12 13 14 14 14 15 15 16 17 17 17 16 16 16 17 17 17
2 2 1 4 5 3 5 6 5 4 5 5 6 6 7 9 11 11 6 7 10 11 12 13 13 11 11 11 12 13 13 13 14 14 15 16 16 17 17 17 17 17 16 15
5 4 2 2 6 4 3 2 3 3 6 6 6 6 7 7 10 3 4 6 7 9 10 11 11 11 9 9 11 11 12 12 13 13 14 14 15 16 16 15 16 15 13 13
3 5 4 2 3 8 3 3 3 2 5 3 5 7 6 6 7 0 4 5 5 5 6 7 8 8 9 10 11 11 11 11 12 13 13 14 14 15 15 15 15 13 12 11
6 6 5 4 1 6 2 3 3 3 5 3 3 5 5 6 7 4 5 6 4 5 6 7 8 8 9 10 10 10 12 12 13 13 14 14 13 14 13 14 14 13 12 13
2 3 4 4 5 8 4 3 5 2 4 2 1 2 2 2 4 5 6 5 5 6 7 7 8 8 9 10 10 11 11 12 13 14 14 13 13 13 11 11 12 13 13 13
8 6 6 5 4 8 5 7 7 7 2 1 1 0 1 3 5 5 6 6 8 8 8 8 9 10 10 9 9 11 12 13 13 14 14 14 13 12 13 11 11 11 11 11
7 8 6 9 7 3 5 6 5 4 2 2 2 1 1 2 3 4 5 6 6 8 9 8 9 11 11 9 9 11 13 13 14 14 14 13 14 11 11 10 9 9 9 9
4 4 5 5 6 5 4 3 4 3 3 4 4 3 2 0 2 4 5 6 7 8 8 8 10 11 12 11 12 12 14 14 14 15 15 14 13 12 9 10 9 9 8 9
6 7 4 5 4 2 3 4 5 5 6 6 6 5 4 2 2 3 4 6 7 9 9 9 10 12 13 13 13 15 14 13 15 16 15 15 14 11 10 10 9 11 8 11
6 8 8 7 7 7 5 5 6 7 5 6 6 4 4 3 2 3 5 5 6 8 8 10 11 14 14 14 15 15 14 14 15 16 16 14 14 13 12 12 12 15 15 18
Wind_Direction
27 52 30 346 350 205 164 107 80 59 68 78 94 94 75 51 54 45 32 22 14 4 350 358 6 3 1 1 359 357 355 355 356 355 352 346 342 339 336 337 339 335 335 334
46 27 324 314 7 55 97 99 91 92 79 96 100 90 74 49 54 45 31 18 3 356 356 358 3 1 357 355 353 353 352 352 356 354 348 342 334 333 332 335 333 334 333 330
94 333 339 43 35 42 52 107 135 135 78 96 117 99 98 57 57 43 26 11 4 1 351 353 360 358 354 354 353 350 349 350 354 354 350 345 340 339 341 338 335 334 331 327
71 8 27 44 37 30 337 351 259 173 149 177 158 166 190 155 41 20 5 0 356 352 349 354 359 357 354 350 348 348 349 350 354 355 351 348 345 340 335 331 326 325 324 320
44 14 26 30 357 346 274 314 248 175 154 122 148 137 208 53 22 359 344 340 339 343 346 352 356 355 350 347 348 350 349 350 352 351 348 345 341 337 331 329 324 324 318 313
16 31 47 340 328 342 315 28 93 66 94 132 320 170 226 2 28 332 331 329 329 336 344 348 350 352 347 347 353 352 348 348 348 347 346 343 340 337 333 333 331 330 326 321
4 18 2 3 10 5 26 46 18 3 1 303 76 103 187 181 167 338 333 326 324 333 343 345 347 351 352 351 355 350 347 347 349 347 346 343 341 336 333 332 329 329 329 329
34 350 350 1 37 7 28 72 95 292 283 298 40 158 211 186 202 309 321 314 318 330 339 342 346 349 350 352 355 351 348 347 348 346 344 341 342 338 334 329 327 327 328 328
39 300 320 344 347 55 71 72 119 155 295 284 257 199 240 233 326 314 311 315 324 333 339 342 348 353 351 355 357 350 347 346 345 344 341 340 341 339 335 330 329 329 329 329
88 300 311 317 39 33 86 124 77 68 336 305 292 223 216 290 309 310 317 323 330 343 344 349 356 357 354 357 353 345 345 344 341 341 340 340 337 336 335 333 332 332 330 332
48 251 316 15 46 9 38 59 85 96 156 240 297 278 170 215 292 307 309 315 331 343 345 352 358 358 352 353 351 345 345 344 342 340 338 336 336 337 337 336 333 333 332 334
54 113 300 298 44 28 95 98 113 117 264 206 235 266 165 188 288 299 306 317 336 338 340 350 356 354 349 349 348 345 345 344 341 339 337 336 336 338 339 337 335 335 335 337
98 95 355 4 45 23 46 51 115 129 145 189 211 274 200 286 308 312 320 330 331 336 340 349 354 352 347 345 344 342 343 343 341 340 338 337 338 339 338 337 336 337 338 338
101 106 181 248 277 326 314 305 166 144 183 227 232 273 302 319 322 328 334 338 334 344 344 349 349 346 343 342 340 338 338 340 341 340 338 338 338 336 335 337 338 339 340 340
87 113 284 290 31 282 238 260 238 186 192 210 255 273 290 300 310 315 326 340 346 347 347 350 346 343 341 341 340 339 337 338 339 338 339 338 337 335 336 339 341 340 341 342
69 102 20 271 360 295 221 210 175 166 191 239 270 281 267 297 315 323 334 346 346 345 347 346 344 342 340 339 339 338 334 334 334 334 336 337 339 340 340 341 343 342 341 341
92 108 21 286 317 347 269 205 182 204 222 227 253 264 304 320 326 325 342 357 346 344 346 344 340 337 333 333 335 331 329 327 330 331 333 336 338 340 341 344 344 342 340 340
127 115 109 327 15 296 279 142 171 238 263 236 238 273 300 305 309 333 54 359 343 343 341 335 332 330 325 323 327 326 324 325 328 330 332 335 338 339 340 344 343 340 337 338
117 127 109 81 318 282 285 236 193 234 289 247 237 284 308 319 314 309 54 9 349 342 330 322 320 316 318 322 325 326 323 325 329 333 334 334 335 338 340 345 341 339 336 337
59 89 110 121 270 265 250 172 142 108 295 264 246 292 319 347 340 328 22 5 359 345 328 320 318 316 320 319 324 324 324 327 331 333 332 331 332 335 337 341 338 338 340 344
118 88 132 167 232 267 235 161 125 137 267 277 306 304 322 298 266 327 1 356 353 340 324 321 319 319 316 318 323 323 322 322 324 327 328 330 329 325 333 336 334 336 343 343
181 168 183 156 211 267 201 147 175 215 212 146 156 240 296 291 313 341 346 343 345 335 326 323 324 322 317 315 320 319 318 316 319 321 323 323 323 322 333 329 327 331 336 339
197 191 186 191 211 256 184 186 189 159 147 137 151 94 23 321 329 335 333 336 333 327 325 324 320 318 316 314 316 315 314 316 318 318 316 314 315 314 315 318 320 325 329 335
243 172 169 233 255 237 217 163 121 106 116 115 110 106 105 94 342 341 336 338 333 328 328 325 324 322 317 315 317 311 311 315 316 315 313 313 312 308 305 312 318 320 320 322
219 171 187 241 251 168 179 164 136 111 110 109 98 94 93 89 19 349 330 326 326 331 327 326 321 315 313 316 315 314 315 314 313 312 311 313 314 307 302 303 302 307 304 308
191 177 179 213 200 168 184 157 139 140 142 135 126 107 78 64 24 344 325 317 316 319 319 319 317 317 316 317 314 313 313 313 313 315 317 317 317 315 314 310 305 301 308 317
Height
1552 1558 1567 1566 1563 1561 1562 1565 1571 1578 1582 1589 1597 1605 1608 1606 1602 1601 1599 1597 1594 1592 1588 1583 1578 1573 1567 1561 1555 1548 1542 1536 1529 1523 1517 1511 1506 1502 1498 1494 1491 1488 1484 1480
1562 1568 1567 1565 1564 1562 1563 1569 1575 1583 1586 1593 1603 1608 1608 1607 1605 1604 1602 1599 1596 1591 1586 1582 1577 1572 1566 1560 1553 1547 1540 1534 1528 1522 1517 1511 1505 1500 1495 1490 1486 1482 1478 1474
1568 1570 1567 1566 1568 1567 1567 1569 1571 1578 1589 1593 1599 1609 1609 1608 1606 1604 1602 1600 1596 1592 1587 1582 1577 1572 1566 1559 1553 1546 1540 1534 1527 1521 1514 1507 1501 1495 1489 1484 1479 1476 1472 1468
1570 1570 1569 1570 1571 1571 1571 1568 1570 1573 1584 1594 1595 1610 1611 1608 1606 1604 1601 1599 1595 1592 1587 1582 1577 1571 1565 1558 1552 1546 1539 1533 1526 1519 1512 1505 1498 1491 1486 1481 1476 1471 1467 1462
1573 1572 1572 1573 1573 1571 1571 1569 1570 1571 1578 1587 1591 1601 1609 1607 1607 1606 1602 1599 1595 1591 1587 1582 1576 1570 1564 1557 1550 1544 1537 1531 1524 1517 1510 1503 1497 1491 1484 1479 1472 1467 1461 1457
1574 1573 1573 1573 1572 1571 1570 1570 1571 1576 1580 1582 1589 1595 1610 1609 1607 1606 1602 1599 1594 1590 1585 1580 1575 1568 1561 1555 1548 1541 1534 1527 1521 1514 1508 1501 1495 1488 1481 1475 1469 1463 1457 1452
1578 1576 1575 1574 1574 1573 1573 1577 1581 1579 1580 1584 1598 1603 1611 1606 1605 1604 1602 1598 1593 1589 1583 1577 1571 1564 1558 1552 1545 1539 1532 1525 1518 1512 1505 1499 1493 1487 1480 1474 1467 1461 1454 1447
1584 1584 1580 1578 1578 1579 1580 1582 1592 1594 1592 1594 1598 1606 1610 1605 1604 1602 1600 1597 1592 1586 1581 1576 1570 1564 1557 1551 1544 1537 1530 1523 1516 1510 1503 1498 1492 1485 1479 1473 1467 1461 1454 1445
1591 1586 1581 1579 1578 1578 1580 1589 1589 1598 1598 1601 1599 1608 1606 1604 1603 1600 1597 1593 1589 1584 1579 1575 1569 1563 1556 1550 1543 1536 1529 1522 1515 1508 1502 1496 1490 1483 1477 1471 1465 1459 1452 1444
1590 1591 1584 1582 1580 1583 1584 1589 1596 1596 1597 1595 1592 1605 1606 1605 1603 1598 1594 1590 1586 1582 1578 1573 1567 1561 1555 1549 1543 1536 1528 1521 1514 1508 1501 1495 1489 1482 1475 1468 1462 1455 1448 1441
1591 1594 1589 1586 1587 1590 1588 1592 1599 1607 1604 1606 1606 1599 1602 1602 1600 1597 1593 1588 1584 1580 1576 1571 1566 1560 1554 1547 1541 1534 1527 1520 1513 1506 1500 1493 1487 1480 1473 1466 1459 1452 1445 1438
1595 1598 1595 1590 1591 1590 1591 1594 1598 1603 1606 1612 1616 1606 1599 1599 1598 1595 1591 1587 1583 1579 1575 1570 1565 1559 1552 1545 1538 1532 1526 1519 1512 1505 1498 1492 1485 1478 1471 1464 1457 1450 1443 1437
1595 1597 1593 1589 1594 1596 1597 1596 1597 1603 1609 1615 1617 1606 1599 1598 1596 1593 1590 1585 1581 1577 1573 1568 1562 1556 1549 1543 1537 1531 1524 1518 1511 1503 1496 1490 1483 1476 1469 1462 1456 1449 1442 1435
1593 1598 1597 1593 1594 1599 1598 1598 1599 1605 1610 1613 1611 1604 1599 1596 1593 1590 1587 1583 1579 1576 1571 1566 1560 1554 1547 1542 1536 1529 1523 1516 1509 1502 1494 1487 1480 1474 1468 1461 1454 1448 1442 1435
1594 1599 1598 1599 1601 1599 1597 1599 1599 1602 1603 1607 1604 1603 1598 1595 1592 1588 1584 1580 1577 1573 1569 1563 1557 1551 1545 1539 1534 1528 1521 1514 1507 1500 1492 1485 1478 1472 1466 1459 1453 1447 1441 1435
1596 1599 1600 1599 1602 1599 1599 1599 1599 1599 1599 1600 1601 1600 1595 1593 1590 1586 1582 1578 1575 1571 1566 1561 1555 1549 1543 1538 1532 1526 1519 1512 1505 1498 1491 1484 1477 1470 1464 1457 1452 1446 1440 1435
1599 1599 1599 1601 1603 1599 1599 1598 1597 1597 1597 1599 1600 1598 1593 1590 1587 1584 1580 1577 1574 1570 1565 1559 1554 1548 1542 1537 1531 1524 1517 1511 1504 1497 1490 1483 1476 1469 1463 1457 1451 1445 1439 1434
1599 1600 1605 1608 1604 1595 1596 1594 1595 1596 1595 1595 1594 1593 1592 1590 1586 1582 1579 1576 1572 1568 1563 1558 1552 1546 1541 1535 1529 1523 1516 1509 1502 1495 1489 1482 1475 1469 1462 1456 1450 1444 1439 1434
1596 1600 1608 1614 1606 1601 1596 1594 1594 1595 1594 1592 1592 1591 1589 1587 1583 1580 1578 1575 1571 1566 1561 1556 1551 1545 1539 1533 1527 1521 1514 1508 1501 1494 1488 1482 1475 1469 1463 1456 1450 1445 1440 1435
1599 1601 1611 1614 1602 1595 1591 1592 1591 1595 1595 1592 1590 1589 1587 1584 1583 1581 1577 1573 1569 1564 1559 1554 1549 1543 1537 1531 1525 1519 1512 1506 1500 1494 1488 1482 1476 1470 1463 1457 1451 1446 1441 1436
1602 1606 1611 1613 1612 1598 1591 1590 1593 1598 1595 1590 1589 1587 1585 1584 1584 1580 1576 1571 1567 1562 1558 1552 1547 1541 1535 1529 1523 1517 1511 1505 1500 1494 1488 1482 1476 1469 1464 1458 1452 1447 1442 1437
1598 1604 1608 1612 1615 1601 1587 1589 1592 1590 1588 1588 1587 1585 1584 1582 1580 1577 1573 1569 1565 1560 1556 1550 1545 1539 1533 1527 1521 1515 1510 1505 1499 1493 1487 1481 1475 1469 1463 1457 1452 1447 1442 1437
1591 1590 1592 1593 1590 1583 1583 1584 1586 1586 1586 1586 1584 1583 1581 1579 1577 1574 1571 1567 1563 1558 1554 1548 1543 1537 1532 1526 1520 1514 1508 1502 1496 1490 1484 1478 1472 1467 1462 1456 1451 1446 1442 1438
1586 1584 1586 1586 1582 1581 1582 1583 1584 1585 1584 1583 1582 1580 1578 1577 1575 1572 1569 1565 1561 1557 1552 1547 1541 1535 1530 1524 1519 1513 1506 1500 1494 1487 1480 1474 1468 1463 1459 1454 1450 1445 1441 1437
1577 1580 1582 1581 1579 1579 1580 1582 1583 1583 1582 1581 1580 1578 1577 1575 1573 1570 1567 1564 1560 1556 1551 1546 1540 1534 1528 1522 1517 1511 1504 1497 1490 1483 1476 1470 1464 1459 1454 1450 1447 1443 1440 1437
1571 1572 1575 1574 1572 1575 1577 1580 1581 1580 1580 1579 1577 1576 1575 1573 1572 1569 1566 1563 1559 1555 1550 1545 1540 1534 1527 1521 1515 1508 1502 1495 1488 1480 1473 1466 1461 1455 1450 1445 1441 1439 1437 1434